Regional Weather Roundup
Issued by NWS Mt. Holly, NJ

Home | Current Version | Previous Version | Text Only | Print | Product List | Glossary On
Versions: 1 2 3 4 5 6 7 8 9 10 11 12 13 14 15 16 17 18 19 20 21 22 23 24 25 26 27 28 29 30 31 32 33 34 35 36 37 38 39 40 41 42 43 44 45 46 47 48 49 50
000
ASUS41 KPHI 260312
RWRPHI

REGIONAL WEATHER ROUNDUP
NATIONAL WEATHER SERVICE MOUNT HOLLY NJ
1100 PM EDT THU AUG 25 2016

NOTE:  "FAIR" INDICATES FEW OR NO CLOUDS BELOW 12,000 FEET WITH NO
SIGNIFICANT WEATHER AND/OR OBSTRUCTIONS TO VISIBILITY.

 * = STATION DOES NOT REPORT PRECIPITATION (E.G. RAIN, SNOW, ETC.)
        OR FOG.

NJZ015>026-260400-
SOUTHERN NEW JERSEY

CITY           SKY/WX    TMP DP  RH WIND       PRES   REMARKS
POMONA         CLEAR     75  67  76 S7        30.03F
WILDWOOD*        N/A     75  69  81 S6        30.05F
MILLVILLE      CLEAR     75  73  93 CALM      30.04F
WRIGHTSTOWN    CLEAR     73  70  89 SW3       30.00S
MOUNT HOLLY    CLEAR     74  70  87 CALM      30.02S
TRENTON        CLEAR     76  70  82 S5        30.01S

$$
NJZ001>014-260400-
NORTHERN NEW JERSEY

CITY           SKY/WX    TMP DP  RH WIND       PRES   REMARKS
SUSSEX         CLEAR     71  70  96 CALM      30.01S FOG
ANDOVER*         N/A     71  69  93 CALM      30.03S
MORRISTOWN     FOG       70  70 100 CALM      30.01S VSB 1/2
NEWARK         PTCLDY    80  70  71 SW10      30.00S
TETERBORO      CLEAR     78  71  79 SW5       29.99S
CALDWELL       CLEAR     77  72  84 CALM      30.01S
SOMERVILLE     CLEAR     72  70  93 CALM      30.00S FOG
ALLAIRE*       CLEAR     75  67  76 S6        30.04S
TOMS RIVER*    CLEAR     74  68  81 SW5       30.03S

$$
PAZ043-044-047-054-055-060>062-066>071-260400-
EASTERN PENNSYLVANIA

CITY           SKY/WX    TMP DP  RH WIND       PRES   REMARKS
PHILADELPHIA   CLEAR     79  70  74 S8        30.02F
NORTH PHILA    CLEAR     81  72  74 SW7       30.03S
BLUE BELL*     CLEAR     73  70  88 CALM      30.01F
DOYLESTOWN     CLEAR     77  72  84 S3        30.02S
QUAKERTOWN*    CLEAR     73  72  94 CALM      30.04S
POTTSTOWN      CLEAR     76  71  85 CALM      30.04S
LANCASTER      CLEAR     76  74  93 CALM      30.02S
COATESVILLE    CLEAR     75  72  88 CALM      30.05S
READING        CLEAR     77  71  82 SE3       30.01R
ALLENTOWN      CLEAR     76  70  82 SW3       30.01F
MOUNT POCONO   CLEAR     70  69  97 W5        30.08S
WILKES BARRE   CLEAR     73  70  90 CALM      30.01S

$$
DEZALL-MDZ008-012-015-019-020-260400-
DELAWARE AND EASTERN MARYLAND

CITY           SKY/WX    TMP DP  RH WIND       PRES   REMARKS
WILMINGTON     CLEAR     78  70  76 S6        30.03S
DOVER          CLEAR     75  75 100 S7        30.02S
GEORGETOWN     CLEAR     73  67  81 S7        30.05F
EASTON         CLEAR     79  74  85 S6        30.07S
PATUXENT       PTCLDY    78  71  79 S3        30.03F
OCEAN CITY     CLEAR     79  70  74 SW10      30.05F
WALLOPS ISLAND CLEAR     78  68  71 S12       30.06F
SALISBURY      CLEAR     73  68  84 S6        30.05F

$$
PAZ001-021-NYZ056-072-MDZ011-DCZ001-260400-
OTHER NEARBY LOCATIONS

CITY           SKY/WX    TMP DP  RH WIND       PRES   REMARKS
HARRISBURG     PTCLDY    81  75  82 VRB3      30.00R
STATE COLLEGE  CLOUDY    74  70  86 SW3       30.04R
WILLIAMSPORT   CLEAR     76  72  87 NE3       29.98R
BINGHAMTON     CLOUDY    73  70  90 S7        30.01F
NEW YORK CITY    N/A     81  70  69 MISG        N/A
BALTIMORE      PTCLDY    79  72  79 SW3       30.01F
WASHINGTON DC  PTCLDY    82  75  79 S7        30.02S

$$



USA.gov is the U.S. government's official web portal to all federal, state and local government web resources and services.